Tracking 28790 objects as of 18-Apr-2024
HD Live streaming from Space Station
objects crossing your sky now

OPS 4682 DEB

Track OPS 4682 DEB now!
10-day predictions


NORAD ID: 29061
Int'l Code: 1965-027BL
Perigee: 1,267.6 km
Apogee: 1,315.9 km
Inclination: 90.2 °
Period: 111.3 minutes
Semi major axis: 7662 km
RCS: 0.0119 m2 (small)
Launch date: April 3, 1965
Source: United States (US)
Launch site: AIR FORCE WESTERN TEST RANGE (AFWTR)

Note: This is SATELLITE DEBRIS
Your satellite tracking list
Your tracking list is empty




NASA's NSSDC Master Catalog

Two Line Element Set (TLE):
1 29061U 65027BL  24108.95878566 -.00000084  00000-0 -32842-3 0  9993
2 29061  90.2469 359.8521 0031550 126.0135 292.8251 12.94271567126164
Source of the keplerian elements: AFSPC